GW6002 Weather Reports


time (UTC)temp
C
wind
direction
speed
KPH
gust
KPH
rain 1hr
cm
rain 24hr
cm
rain mn
cm
humidity
%
barometer
mb
20260508115733 7 47 9.7 12.9 0.00 0.05 0.05 89 1016.2
20260508115231 7 43 11.3 24.1 0.00 0.05 0.05 89 1016.2
20260508114727 7 58 6.4 16.1 0.00 0.05 0.05 89 1016.4
20260508114224 7 39 20.9 24.1 0.18 0.05 0.05 88 1016.5
20260508113720 7 45 9.7 22.5 0.18 0.05 0.05 88 1016.2
20260508113219 7 51 12.9 24.1 0.00 0.03 0.03 88 1016.4
20260508112715 7 36 17.7 25.7 0.00 0.03 0.03 88 1016.3
20260508112212 7 31 16.1 24.1 0.00 0.03 0.03 88 1016.3
20260508111709 7 42 8.0 12.9 0.18 0.03 0.03 88 1016.5
20260508111206 7 40 11.3 22.5 0.00 0.00 0.00 87 1016.2
20260508110703 7 30 16.1 30.6 0.00 0.00 0.00 86 1016.0
20260508110200 7 38 20.9 24.1 0.00 0.00 0.00 86 1016.0
20260508105700 8 60 17.7 25.7 0.00 0.00 0.00 85 1016.0
20260508105157 8 37 11.3 17.7 0.00 0.00 0.00 85 1016.2
20260508104655 8 31 17.7 22.5 0.00 0.00 0.00 84 1015.9
20260508104151 8 51 14.5 29.0 0.00 0.00 0.00 84 1016.1
20260508103648 8 33 14.5 22.5 0.00 0.00 0.00 83 1016.0
20260508103146 8 67 6.4 22.5 0.00 0.00 0.00 83 1016.2
20260508102643 8 34 11.3 17.7 0.00 0.00 0.00 83 1016.0
20260508102141 7 33 20.9 37.0 0.00 0.00 0.00 83 1016.1
20260508101638 8 40 22.5 29.0 0.00 0.00 0.00 83 1016.0
20260508101135 8 54 11.3 17.7 0.00 0.00 0.00 83 1016.2
20260508100632 8 71 3.2 12.9 0.00 0.00 0.00 84 1016.0
20260508100131 8 30 14.5 17.7 0.00 0.00 0.00 84 1016.0
20260508095627 7 85 6.4 17.7 0.00 0.00 0.00 83 1016.0
20260508095124 7 40 9.7 17.7 0.00 0.00 0.00 83 1016.0
20260508094621 7 53 16.1 20.9 0.00 0.00 0.00 83 1015.8
20260508094117 7 39 22.5 24.1 0.00 0.00 0.00 83 1016.2
20260508093615 7 55 6.4 27.4 0.00 0.00 0.00 84 1016.0
20260508093113 7 21 8.0 22.5 0.00 0.00 0.00 84 1015.8
20260508092609 7 42 17.7 24.1 0.00 0.00 0.00 84 1015.6
20260508092108 7 52 8.0 14.5 0.00 0.00 0.00 84 1015.9
20260508091605 7 76 6.4 22.5 0.00 0.00 0.00 84 1015.7
20260508091101 8 39 12.9 24.1 0.00 0.00 0.00 83 1015.9
20260508090600 8 40 9.7 20.9 0.00 0.00 0.00 83 1015.8
20260508090056 8 94 11.3 14.5 0.00 0.00 0.00 83 1015.7
20260508085552 8 61 9.7 17.7 0.00 0.00 0.00 83 1015.7
20260508085050 8 77 8.0 24.1 0.00 0.00 0.00 83 1015.6
20260508084547 8 32 6.4 11.3 0.00 0.00 0.00 83 1015.7
20260508084044 8 44 6.4 16.1 0.00 0.00 0.00 83 1015.7
20260508083541 8 54 11.3 16.1 0.00 0.00 0.00 83 1015.6
20260508083038 8 64 11.3 16.1 0.00 0.00 0.00 82 1015.7
20260508082534 8 39 14.5 25.7 0.00 0.00 0.00 82 1015.6
20260508082031 8 64 8.0 16.1 0.00 0.00 0.00 83 1015.8
20260508081529 8 48 12.9 22.5 0.00 0.00 0.00 83 1015.6
20260508081024 8 47 14.5 22.5 0.00 0.00 0.00 83 1015.3
20260508080522 8 56 3.2 25.7 0.00 0.00 0.00 84 1015.7
20260508080020 8 70 8.0 17.7 0.00 0.00 0.00 83 1015.6
20260508075516 8 47 6.4 9.7 0.00 0.00 0.00 84 1015.6
20260508075014 7 73 11.3 16.1 0.00 0.00 0.00 84 1015.4
20260508074511 7 50 8.0 17.7 0.00 0.00 0.00 84 1015.6
20260508074008 7 36 12.9 22.5 0.00 0.00 0.00 84 1015.5
20260508073505 7 75 6.4 20.9 0.00 0.00 0.00 85 1015.4
20260508073003 7 51 9.7 27.4 0.00 0.00 0.00 85 1015.3
20260508072458 7 47 6.4 24.1 0.00 0.00 0.00 85 1015.5
20260508071955 7 83 6.4 17.7 0.00 0.00 0.00 85 1015.4
20260508071454 7 63 6.4 16.1 0.00 0.00 0.00 85 1015.5
20260508070951 7 37 8.0 22.5 0.00 0.00 0.00 85 1015.4
20260508070449 7 98 8.0 22.5 0.00 0.00 0.00 85 1015.4
20260508065946 7 41 8.0 20.9 0.00 0.00 0.00 86 1015.4
20260508065444 7 47 16.1 24.1 0.00 0.00 0.00 86 1015.4
20260508064942 7 43 11.3 20.9 0.00 0.00 0.00 87 1015.4
20260508064439 7 63 9.7 14.5 0.00 0.00 0.00 87 1015.2
20260508063937 7 44 20.9 25.7 0.00 0.00 0.00 88 1015.3
20260508063434 7 45 6.4 9.7 0.00 0.00 0.00 89 1015.3
20260508062932 7 76 8.0 22.5 0.00 0.00 0.00 90 1015.2
20260508062429 7 60 6.4 11.3 0.00 0.00 0.00 89 1015.2
20260508061926 7 37 4.8 11.3 0.00 0.00 0.00 89 1015.3
20260508061424 7 67 8.0 16.1 0.00 0.00 0.00 90 1015.3
20260508060919 7 39 8.0 12.9 0.00 0.00 0.00 91 1015.0
20260508060417 7 65 8.0 16.1 0.00 0.00 0.00 91 1015.1
20260508055913 7 56 8.0 25.7 0.00 0.00 0.00 92 1015.1
20260508055410 7 54 9.7 17.7 0.00 0.00 0.00 93 1015.1
20260508054906 7 37 16.1 25.7 0.00 0.00 0.00 93 1015.0
20260508054404 7 46 8.0 16.1 0.00 0.00 0.00 94 1015.0
20260508053900 7 39 8.0 12.9 0.00 0.00 0.00 94 1014.8
20260508053358 7 35 8.0 14.5 0.00 0.00 0.00 95 1014.9
20260508052855 7 32 19.3 25.7 0.00 0.00 0.00 95 1015.1
20260508052353 7 27 16.1 22.5 0.00 0.00 0.00 95 1015.0
20260508051849 7 29 17.7 24.1 0.00 0.00 0.00 95 1014.8
20260508051344 7 26 27.4 30.6 0.00 0.00 0.00 94 1014.8
20260508050841 7 30 24.1 27.4 0.00 0.00 0.00 94 1014.9
20260508050338 7 35 17.7 20.9 0.00 0.00 0.00 93 1014.9
20260508045833 7 43 16.1 33.8 0.00 0.00 0.00 93 1014.7
20260508045331 7 25 20.9 25.7 0.00 0.00 0.00 94 1015.1
20260508044829 7 81 4.8 20.9 0.00 0.00 0.00 95 1014.9
20260508044325 7 29 17.7 25.7 0.00 0.00 0.00 95 1014.9
20260508043821 7 30 14.5 16.1 0.00 0.00 0.00 95 1014.9
20260508043319 7 38 17.7 22.5 0.00 0.00 0.00 95 1014.7
20260508042815 7 38 17.7 25.7 0.00 0.00 0.00 95 1014.5
20260508042313 7 28 20.9 24.1 0.00 0.00 0.00 95 1014.4
20260508041810 7 49 12.9 16.1 0.00 0.00 0.00 95 1014.6
20260508041306 7 31 8.0 14.5 0.00 0.00 0.00 95 1014.5
20260508040802 7 32 17.7 24.1 0.00 0.00 0.00 95 1014.5
20260508040300 7 37 9.7 22.5 0.00 0.00 0.00 95 1014.3
20260508035757 7 23 25.7 29.0 0.00 0.00 0.00 95 1014.5
20260508035255 7 42 16.1 22.5 0.00 0.00 0.00 95 1014.4
20260508034751 7 31 22.5 27.4 0.00 0.00 0.00 95 1014.4
20260508034248 7 34 12.9 27.4 0.00 0.00 0.00 95 1014.5
20260508033745 7 24 16.1 24.1 0.00 0.00 0.00 95 1014.4
20260508033243 7 40 14.5 24.1 0.00 0.00 0.00 95 1014.4
20260508032741 7 29 16.1 24.1 0.00 0.00 0.00 95 1014.4
20260508032238 7 54 14.5 22.5 0.00 0.00 0.00 95 1014.2
20260508031734 7 52 6.4 22.5 0.00 0.00 0.00 95 1014.4
20260508031231 7 34 12.9 20.9 0.00 0.00 0.00 95 1014.2
20260508030727 7 39 11.3 22.5 0.00 0.00 0.00 95 1014.1
20260508030225 7 39 16.1 25.7 0.00 0.00 0.00 95 1014.3
20260508025721 7 32 20.9 24.1 0.00 0.00 0.00 95 1014.3
20260508025219 7 17 12.9 20.9 0.00 0.00 0.00 95 1014.2
20260508024714 7 28 12.9 17.7 0.00 0.00 0.00 95 1014.1
20260508024212 7 27 22.5 24.1 0.00 0.00 0.00 96 1014.0
20260508023707 7 27 16.1 24.1 0.00 0.00 0.00 96 1014.0
20260508023206 7 36 11.3 17.7 0.00 0.00 0.00 96 1014.0
20260508022701 7 27 19.3 22.5 0.00 0.00 0.00 96 1013.7
20260508022158 7 30 16.1 24.1 0.00 0.00 0.00 96 1013.7
20260508021654 7 28 20.9 24.1 0.00 0.00 0.00 96 1014.0
20260508021150 7 29 14.5 17.7 0.00 0.00 0.00 96 1014.0
20260508020648 7 31 12.9 17.7 0.00 0.00 0.00 96 1014.0
20260508020145 7 38 8.0 14.5 0.00 0.00 0.00 96 1013.9
20260508015642 7 60 12.9 17.7 0.00 0.00 0.00 96 1013.7
20260508015139 7 48 8.0 16.1 0.00 0.00 0.00 96 1013.9
20260508014636 7 48 6.4 17.7 0.00 0.00 0.00 96 1013.9
20260508014132 7 44 6.4 14.5 0.00 0.00 0.00 96 1013.7
20260508013628 7 45 9.7 14.5 0.00 0.00 0.00 96 1013.9
20260508013125 7 33 9.7 16.1 0.00 0.00 0.00 96 1013.8
20260508012623 8 46 11.3 20.9 0.00 0.00 0.00 96 1013.8
20260508012120 8 26 12.9 14.5 0.00 0.00 0.00 95 1013.7
20260508011618 8 34 12.9 16.1 0.00 0.00 0.00 95 1013.8
20260508011115 8 26 12.9 16.1 0.00 0.00 0.00 95 1013.9
20260508010612 8 29 12.9 20.9 0.00 0.00 0.00 95 1013.8
20260508010110 8 38 16.1 22.5 0.00 0.00 0.00 95 1013.7
20260508005606 8 40 11.3 20.9 0.00 0.00 0.00 95 1013.5
20260508005102 8 22 16.1 20.9 0.00 0.00 0.00 95 1013.6
20260508004558 8 20 14.5 17.7 0.00 0.00 0.00 96 1013.8
20260508004055 8 21 14.5 17.7 0.00 0.00 0.00 96 1013.7
20260508003552 8 34 12.9 17.7 0.00 0.00 0.00 96 1013.8
20260508003050 8 37 14.5 22.5 0.00 0.00 0.00 96 1013.8
20260508002545 8 19 11.3 16.1 0.00 0.00 0.00 96 1013.8
20260508002043 8 25 16.1 22.5 0.00 0.00 0.00 96 1013.6
20260508001538 8 31 16.1 17.7 0.00 0.00 0.00 96 1013.8
20260508001035 8 27 16.1 20.9 0.00 0.00 0.00 96 1013.8
20260508000531 8 26 16.1 17.7 0.00 0.00 0.00 96 1013.9
20260508000029 8 31 11.3 16.1 0.00 0.00 0.00 96 1013.8
20260507235525 8 18 9.7 16.1 0.00 0.00 0.00 96 1013.6
20260507235023 8 22 11.3 12.9 0.00 0.00 0.00 96 1013.8
20260507234519 8 16 11.3 14.5 0.00 0.00 0.00 96 1013.6
20260507234015 8 29 14.5 20.9 0.00 0.00 0.00 96 1013.6
20260507233512 8 24 9.7 17.7 0.00 0.00 0.00 96 1013.4
20260507233011 8 25 14.5 17.7 0.00 0.00 0.00 96 1013.3
20260507232507 8 29 14.5 16.1 0.00 0.00 0.00 96 1013.3
20260507232004 8 34 8.0 12.9 0.00 0.00 0.00 96 1013.4
20260507231500 8 25 17.7 20.9 0.00 0.00 0.00 96 1013.2
20260507230958 8 31 16.1 17.7 0.00 0.00 0.00 96 1013.3
20260507230454 8 22 16.1 20.9 0.00 0.00 0.00 96 1013.2
20260507225949 8 23 8.0 14.5 0.00 0.00 0.00 96 1013.2
20260507225446 8 22 17.7 20.9 0.00 0.00 0.00 96 1013.2
20260507224942 8 32 14.5 20.9 0.00 0.00 0.00 96 1013.2
20260507224438 8 11 12.9 22.5 0.00 0.00 0.00 96 1013.3
20260507223935 8 23 12.9 14.5 0.00 0.00 0.00 95 1013.4
20260507223431 8 18 9.7 17.7 0.00 0.00 0.00 95 1013.3
20260507222928 8 20 12.9 12.9 0.00 0.00 0.00 95 1013.4
20260507222425 8 31 16.1 17.7 0.00 0.00 0.00 95 1013.1
20260507221922 8 27 16.1 16.1 0.00 0.00 0.00 96 1013.2
20260507221418 8 31 12.9 14.5 0.00 0.00 0.00 96 1013.3
20260507220914 8 5 14.5 16.1 0.00 0.00 0.00 95 1013.1
20260507220412 8 23 11.3 22.5 0.00 0.00 0.00 95 1013.0
20260507215908 8 29 12.9 17.7 0.00 0.00 0.00 95 1013.0
20260507215405 8 11 14.5 16.1 0.00 0.00 0.00 95 1013.1
20260507214903 8 8 11.3 14.5 0.00 0.00 0.00 95 1013.2
20260507214400 8 18 12.9 20.9 0.00 0.00 0.00 95 1013.2
20260507213855 8 41 14.5 17.7 0.00 0.00 0.00 95 1012.9
20260507213352 8 28 11.3 17.7 0.00 0.00 0.00 95 1013.0
20260507212849 8 9 12.9 16.1 0.00 0.00 0.00 95 1013.2
20260507212345 8 9 12.9 12.9 0.00 0.00 0.00 94 1013.0
20260507211842 8 20 14.5 20.9 0.00 0.00 0.00 94 1013.0
20260507211339 8 16 14.5 17.7 0.00 0.00 0.00 94 1013.0
20260507210835 8 15 11.3 16.1 0.00 0.00 0.00 94 1012.8
20260507210333 8 28 17.7 17.7 0.00 0.00 0.00 94 1012.8
20260507205829 8 21 11.3 14.5 0.00 0.43 0.43 94 1012.6
20260507205326 8 34 12.9 16.1 0.00 0.43 0.43 95 1012.5
20260507204822 8 27 14.5 20.9 0.00 0.43 0.43 95 1012.4
20260507204320 8 12 14.5 17.7 0.00 0.43 0.43 95 1012.3
20260507203817 8 17 11.3 14.5 0.00 0.43 0.43 95 1012.5
20260507203315 8 17 14.5 16.1 0.00 0.43 0.43 95 1012.4
20260507202811 8 29 11.3 17.7 0.00 0.43 0.43 95 1012.4
20260507202307 8 16 14.5 20.9 0.00 0.43 0.43 95 1012.2
20260507201802 8 21 16.1 20.9 0.00 0.43 0.43 95 1012.2
20260507201259 8 14 14.5 16.1 0.00 0.43 0.43 95 1012.4
20260507200755 8 14 14.5 16.1 0.00 0.43 0.43 95 1012.3
20260507200251 8 357 16.1 22.5 0.00 0.43 0.43 95 1012.1
20260507195747 8 19 16.1 17.7 0.00 0.43 0.43 95 1012.2
20260507195245 8 36 9.7 12.9 0.00 0.43 0.43 95 1011.9
20260507194742 8 23 16.1 22.5 0.00 0.43 0.43 95 1011.9
20260507194238 8 23 11.3 17.7 0.00 0.43 0.43 95 1011.9
20260507193735 8 20 16.1 24.1 0.00 0.43 0.43 95 1011.7
20260507193231 8 13 17.7 22.5 0.00 0.43 0.43 95 1011.8
20260507192728 8 13 17.7 24.1 0.00 0.43 0.43 95 1011.9
20260507192224 8 13 14.5 27.4 0.00 0.43 0.43 95 1011.9
20260507191720 8 31 14.5 27.4 0.00 0.43 0.43 95 1011.7
20260507191218 8 10 17.7 20.9 0.00 0.43 0.43 95 1011.6
20260507190714 8 7 17.7 24.1 0.00 0.43 0.43 95 1011.8
20260507190213 9 15 19.3 22.5 0.00 0.43 0.43 95 1011.5
20260507185711 9 2 16.1 17.7 0.00 0.43 0.43 95 1011.7
20260507185208 9 2 16.1 20.9 0.00 0.43 0.43 95 1011.7
20260507184705 9 18 17.7 20.9 0.00 0.43 0.43 94 1011.2
20260507184203 9 12 11.3 20.9 0.00 0.43 0.43 95 1011.3
20260507183659 9 5 17.7 17.7 0.00 0.43 0.43 94 1011.3
20260507183156 9 1 14.5 16.1 0.00 0.43 0.43 94 1011.2
20260507182654 9 2 12.9 20.9 0.00 0.43 0.43 94 1011.4
20260507182149 9 6 16.1 20.9 0.00 0.43 0.43 94 1011.1
20260507181646 9 5 14.5 24.1 0.00 0.43 0.43 95 1011.1
20260507181142 9 10 12.9 17.7 0.00 0.43 0.43 94 1011.1
20260507180638 9 351 11.3 14.5 0.00 0.43 0.43 94 1010.9
20260507180136 10 355 11.3 14.5 0.00 0.43 0.43 94 1011.0
20260507175631 10 7 8.0 11.3 0.00 0.43 0.43 94 1011.0
20260507175129 10 346 16.1 17.7 0.00 0.43 0.43 94 1010.6
20260507174626 10 5 12.9 16.1 0.00 0.43 0.43 94 1010.7
20260507174124 10 13 12.9 16.1 0.00 0.43 0.43 94 1010.6
20260507173621 10 359 11.3 16.1 0.00 0.43 0.43 94 1010.5
20260507173118 10 348 16.1 16.1 0.00 0.43 0.43 93 1010.6
20260507172614 10 7 14.5 16.1 0.00 0.43 0.43 93 1010.8
20260507172111 10 0 12.9 14.5 0.00 0.43 0.43 93 1010.8
20260507171606 10 349 8.0 14.5 0.00 0.43 0.43 93 1010.5
20260507171103 10 3 11.3 16.1 0.00 0.43 0.43 93 1010.5
20260507170600 10 1 14.5 14.5 0.00 0.43 0.43 93 1010.5
20260507170057 10 1 11.3 17.7 0.00 0.43 0.43 92 1010.3
20260507165553 10 352 9.7 17.7 0.00 0.43 0.43 92 1010.4
20260507165049 10 347 8.0 17.7 0.00 0.43 0.43 92 1010.3
20260507164546 10 346 11.3 17.7 0.00 0.43 0.43 92 1010.2
20260507164043 10 335 12.9 20.9 0.00 0.43 0.43 92 1010.0
20260507163540 10 343 16.1 20.9 0.00 0.43 0.43 92 1010.1
20260507163038 10 6 16.1 20.9 0.00 0.43 0.43 92 1009.6
20260507162532 10 336 11.3 20.9 0.00 0.43 0.43 91 1009.6
20260507162029 10 357 17.7 20.9 0.00 0.43 0.43 91 1009.9
20260507161526 10 343 19.3 25.7 0.00 0.43 0.43 91 1010.0
20260507161023 10 1 17.7 24.1 0.00 0.43 0.43 91 1009.7
20260507160519 10 348 16.1 20.9 0.00 0.43 0.43 91 1009.6
20260507160015 10 323 14.5 17.7 0.00 0.43 0.43 92 1009.6
20260507155510 10 334 14.5 17.7 0.00 0.43 0.43 91 1009.5
20260507155008 10 4 17.7 20.9 0.00 0.43 0.43 91 1009.4
20260507154504 10 337 12.9 20.9 0.00 0.43 0.43 91 1009.7
20260507154001 10 357 12.9 22.5 0.00 0.43 0.43 91 1009.5
20260507153458 10 349 16.1 24.1 0.00 0.43 0.43 91 1009.7
20260507152954 10 327 9.7 17.7 0.00 0.43 0.43 91 1009.4
20260507152451 10 339 14.5 17.7 0.00 0.43 0.43 91 1009.6
20260507151947 10 339 16.1 20.9 0.00 0.43 0.43 91 1009.5
20260507151443 10 327 14.5 22.5 0.00 0.43 0.43 91 1009.3
20260507150940 10 307 17.7 20.9 0.00 0.43 0.43 91 1009.3
20260507150437 10 340 14.5 17.7 0.00 0.43 0.43 90 1009.2
20260507145933 10 334 12.9 25.7 0.00 0.43 0.43 91 1009.2
20260507145429 11 321 17.7 25.7 0.00 0.43 0.43 90 1009.2
20260507144926 11 336 14.5 22.5 0.00 0.43 0.43 89 1009.1
20260507144423 11 311 17.7 20.9 0.00 0.43 0.43 88 1009.1
20260507143920 12 329 12.9 25.7 0.00 0.43 0.43 87 1009.2
20260507143418 12 310 20.9 25.7 0.00 0.43 0.43 87 1009.0
20260507142914 12 333 12.9 24.1 0.00 0.43 0.43 86 1008.7
20260507142410 13 324 16.1 22.5 0.00 0.43 0.43 85 1008.8
20260507141907 13 327 16.1 24.1 0.00 0.43 0.43 85 1008.8
20260507141403 13 300 16.1 27.4 0.00 0.43 0.43 82 1008.5
20260507140900 13 303 17.7 22.5 0.00 0.43 0.43 83 1008.5
20260507140357 13 342 14.5 20.9 0.00 0.43 0.43 84 1008.4
20260507135855 13 335 12.9 22.5 0.00 0.43 0.43 84 1008.3
20260507135351 14 349 14.5 20.9 0.00 0.43 0.43 84 1008.3
20260507134849 13 332 12.9 17.7 0.00 0.43 0.43 84 1008.4
20260507134345 14 356 16.1 20.9 0.00 0.43 0.43 84 1008.2
20260507133841 15 358 17.7 24.1 0.00 0.43 0.43 82 1007.9
20260507133336 15 339 19.3 25.7 0.00 0.43 0.43 79 1008.1
20260507132835 16 358 16.1 24.1 0.00 0.43 0.43 78 1008.1
20260507132331 16 14 12.9 16.1 0.00 0.43 0.43 79 1008.0
20260507131829 16 357 12.9 16.1 0.00 0.43 0.43 79 1007.9
20260507131325 16 357 16.1 17.7 0.00 0.43 0.43 79 1008.0
20260507130822 16 322 11.3 16.1 0.00 0.43 0.43 78 1007.8
20260507130319 16 341 11.3 16.1 0.00 0.43 0.43 77 1007.9
20260507125818 16 314 9.7 16.1 0.00 0.43 0.43 80 1007.7
20260507125315 16 349 9.7 12.9 0.00 0.43 0.43 79 1007.6
20260507124812 16 314 14.5 17.7 0.00 0.43 0.43 79 1007.6
20260507124308 16 351 11.3 20.9 0.00 0.43 0.43 78 1007.3
20260507123807 16 345 11.3 16.1 0.00 0.43 0.43 79 1007.5
20260507123304 16 341 12.9 14.5 0.00 0.43 0.43 80 1007.6
20260507122800 16 326 9.7 14.5 0.00 0.43 0.43 78 1007.5
20260507122255 16 340 11.3 14.5 0.00 0.43 0.43 78 1007.4
20260507121751 17 325 8.0 14.5 0.00 0.43 0.43 77 1007.2
20260507121247 17 21 12.9 16.1 0.00 0.43 0.43 77 1007.6
20260507120744 16 342 6.4 12.9 0.00 0.43 0.43 78 1007.4
20260507120241 17 352 4.8 11.3 0.00 0.43 0.43 78 1007.5